Regional Weather Roundup
Issued by NWS

Home | Current Version | Previous Version | Text Only | Print | Product List | Glossary On
Versions: 1 2 3 4 5 6 7 8 9 10 11 12 13 14 15 16 17 18 19 20 21 22 23 24 25 26 27 28 29 30 31 32 33 34 35 36 37 38 39 40 41 42 43 44 45 46 47 48 49 50
000
ASUS43 KTOP 252308
RWRKS

WEATHER ROUNDUP FOR KANSAS
NATIONAL WEATHER SERVICE GOODLAND KS
600 PM CDT SAT JUN 25 2016

NOTE:  "FAIR" INDICATES FEW OR NO CLOUDS BELOW 12,000 FEET WITH NO
SIGNIFICANT WEATHER AND/OR OBSTRUCTIONS TO VISIBILITY.

KSZ001>006-013>018-027>032-041>047-260000-
NORTHWEST KANSAS

CITY           SKY/WX    TMP DP  RH WIND       PRES   REMARKS
GOODLAND       MOSUNNY   84  54  35 N15       30.02R
HAYS           CLOUDY    90  63  40 E12       29.86R
HILL CITY      CLOUDY    82  67  60 N10       29.95R
RUSSELL        MOSUNNY   93  64  38 S17       29.85F
$$

KSZ061>065-074>080-084>089-260000-
SOUTHWEST KANSAS

CITY           SKY/WX    TMP DP  RH WIND       PRES   REMARKS
DODGE CITY     SUNNY     93  62  35 S24G33    29.87F
ELKHART          N/A     92  62  36 S16         N/A
GARDEN CITY    MOSUNNY   89  63  41 S13       29.87F
GREAT BEND     SUNNY     95  64  36 S25       29.86F HX  97
LIBERAL        SUNNY     95  63  34 S28G35    29.88F HX  96
PRATT          SUNNY     90  63  39 S24       29.89F
$$

KSZ066>073-081>083-090>101-260000-
SOUTHEAST KANSAS

CITY           SKY/WX    TMP DP  RH WIND       PRES   REMARKS
CHANUTE        SUNNY     91  70  49 S13       29.95F HX  96
COFFEYVILLE    MOSUNNY   94  69  44 S13       29.95F HX  99
HUTCHINSON     SUNNY     95  66  38 S17G29    29.89F HX  98
MEDICINE LODGE   N/A     95  62  33 S15G26    29.88F HX  96
PARSONS        SUNNY     91  70  49 S8        29.96F HX  96
WICHITA INTL   MOSUNNY   95  67  39 S21G26    29.90F HX  99
WICHITA JABRA  SUNNY     93  68  43 S15G25    29.91F HX  97
WICHITA MCCONL SUNNY     94  68  42 SW16G23   29.92F HX  98
WINFIELD       SUNNY     91  70  49 S15       29.94F HX  96
$$

KSZ007>012-019>026-033>040-048>060-102>105-260000-
NORTHEAST KANSAS

CITY           SKY/WX    TMP DP  RH WIND       PRES   REMARKS
CONCORDIA      CLOUDY    91  66  43 S13       29.88S
EMPORIA        SUNNY     93  69  45 S15       29.93F HX  98
LAWRENCE       SUNNY     94  69  44 S15G24    29.92F HX  99
MANHATTAN      CLOUDY    97  68  38 SW14G24   29.88S HX 102
MARYSVILLE     LGT RAIN  84  70  61 S12       29.88F
OLATHE IND     MOSUNNY   93  67  42 S15       29.96S HX  96
OLATHE EXE     SUNNY     89  67  47 SW10G20   29.95F
SALINA         CLOUDY    99  65  32 S18G25    29.85F HX 102
TOPEKA BILLARD SUNNY     93  68  43 S18       29.90F HX  97
TOPEKA FORBES  SUNNY     95  70  44 S15G25    29.91F HX 101
$$




USA.gov is the U.S. government's official web portal to all federal, state and local government web resources and services.